Tracking 28790 objects as of 18-Apr-2024
HD Live streaming from Space Station
objects crossing your sky now

GLOBALSTAR M059

Track GLOBALSTAR M059 now!
10-day predictions
GLOBALSTAR M059 is classified as:


NORAD ID: 25944
Int'l Code: 1999-058B
Perigee: 1,687.4 km
Apogee: 1,688.9 km
Inclination: 52.0 °
Period: 120.0 minutes
Semi major axis: 8059 km
RCS: 2.6566 m2 (large)
Launch date: October 18, 1999
Source: Globalstar (GLOB)
Launch site: TYURATAM MISSILE AND SPACE COMPLEX (TTMTR)
Your satellite tracking list
Your tracking list is empty




NASA's NSSDC Master Catalog

Two Line Element Set (TLE):
1 25944U 99058B   24108.78347291 -.00000127  00000-0 -50555-3 0  9996
2 25944  52.0015 278.0076 0000949 133.1768 330.0983 11.99960547522972
Source of the keplerian elements: AFSPC